Year,Month,Day,Hour,Minute,Value (Times are PST for temperature in C)
2015,07,13,00,00,15.10
2015,07,13,00,01,15.10
2015,07,13,00,02,15.00
2015,07,13,00,03,15.00
2015,07,13,00,04,15.00
2015,07,13,00,05,15.00
2015,07,13,00,06,15.00
2015,07,13,00,07,15.00
2015,07,13,00,08,15.00
2015,07,13,00,09,14.90
2015,07,13,00,10,14.90
2015,07,13,00,11,14.90
2015,07,13,00,12,14.90
2015,07,13,00,13,14.90
2015,07,13,00,14,14.90
2015,07,13,00,15,14.90
2015,07,13,00,16,14.90
2015,07,13,00,17,14.90
2015,07,13,00,18,14.90
2015,07,13,00,19,14.90
2015,07,13,00,20,14.90
2015,07,13,00,21,14.90
2015,07,13,00,22,14.90
2015,07,13,00,23,14.90
2015,07,13,00,24,14.90
2015,07,13,00,25,14.90
2015,07,13,00,26,14.90
2015,07,13,00,27,14.90
2015,07,13,00,28,14.90
2015,07,13,00,29,14.90
2015,07,13,00,30,14.90
2015,07,13,00,31,15.00
2015,07,13,00,32,15.00
2015,07,13,00,33,14.90
2015,07,13,00,34,14.90
2015,07,13,00,35,14.90
2015,07,13,00,36,14.90
2015,07,13,00,37,14.90
2015,07,13,00,38,14.90
2015,07,13,00,39,14.90
2015,07,13,00,40,14.90
2015,07,13,00,41,14.90
2015,07,13,00,42,14.90
2015,07,13,00,43,14.90
2015,07,13,00,44,14.90
2015,07,13,00,45,14.90
2015,07,13,00,46,15.00
2015,07,13,00,47,15.00
2015,07,13,00,48,14.90
2015,07,13,00,49,14.90
2015,07,13,00,50,14.90
2015,07,13,00,51,14.90
2015,07,13,00,52,14.90
2015,07,13,00,53,14.90
2015,07,13,00,54,14.90
2015,07,13,00,55,14.80
2015,07,13,00,56,14.80
2015,07,13,00,57,14.80
2015,07,13,00,58,14.80
2015,07,13,00,59,14.90
2015,07,13,01,00,14.90
2015,07,13,01,01,14.90
2015,07,13,01,02,14.90
2015,07,13,01,03,14.90
2015,07,13,01,04,14.90
2015,07,13,01,05,14.90
2015,07,13,01,06,14.90
2015,07,13,01,07,14.90
2015,07,13,01,08,15.00
2015,07,13,01,09,15.00
2015,07,13,01,10,15.00
2015,07,13,01,11,15.00
2015,07,13,01,12,15.10
2015,07,13,01,13,15.10
2015,07,13,01,14,15.10
2015,07,13,01,15,15.00
2015,07,13,01,16,15.00
2015,07,13,01,17,15.00
2015,07,13,01,18,15.10
2015,07,13,01,19,15.10
2015,07,13,01,20,15.10
2015,07,13,01,21,15.10
2015,07,13,01,22,15.10
2015,07,13,01,23,15.20
2015,07,13,01,24,15.20
2015,07,13,01,25,15.20
2015,07,13,01,26,15.20
2015,07,13,01,27,15.20
2015,07,13,01,28,15.20
2015,07,13,01,29,15.20
2015,07,13,01,30,15.20
2015,07,13,01,31,15.20
2015,07,13,01,32,15.20
2015,07,13,01,33,15.20
2015,07,13,01,34,15.30
2015,07,13,01,35,15.30
2015,07,13,01,36,15.30
2015,07,13,01,37,15.30
2015,07,13,01,38,15.30
2015,07,13,01,39,15.30
2015,07,13,01,40,15.30
2015,07,13,01,41,15.30
2015,07,13,01,42,15.30
2015,07,13,01,43,15.30
2015,07,13,01,44,15.30
2015,07,13,01,45,15.30
2015,07,13,01,46,15.30
2015,07,13,01,47,15.20
2015,07,13,01,48,15.20
2015,07,13,01,49,15.20
2015,07,13,01,50,15.20
2015,07,13,01,51,15.20
2015,07,13,01,52,15.20
2015,07,13,01,53,15.20
2015,07,13,01,54,15.10
2015,07,13,01,55,15.10
2015,07,13,01,56,15.10
2015,07,13,01,57,15.10
2015,07,13,01,58,15.10
2015,07,13,01,59,15.10
2015,07,13,02,00,15.10
2015,07,13,02,01,15.10
2015,07,13,02,02,15.10
2015,07,13,02,03,15.10
2015,07,13,02,04,15.10
2015,07,13,02,05,15.10
2015,07,13,02,06,15.10
2015,07,13,02,07,15.00
2015,07,13,02,08,15.00
2015,07,13,02,09,15.00
2015,07,13,02,10,15.00
2015,07,13,02,11,15.00
2015,07,13,02,12,14.90
2015,07,13,02,13,14.90
2015,07,13,02,14,14.90
2015,07,13,02,15,14.90
2015,07,13,02,16,14.90
2015,07,13,02,17,14.90
2015,07,13,02,18,14.90
2015,07,13,02,19,14.90
2015,07,13,02,20,14.90
2015,07,13,02,21,14.90
2015,07,13,02,22,14.90
2015,07,13,02,23,14.90
2015,07,13,02,24,14.90
2015,07,13,02,25,14.90
2015,07,13,02,26,14.90
2015,07,13,02,27,14.80
2015,07,13,02,28,14.80
2015,07,13,02,29,14.80
2015,07,13,02,30,14.80
2015,07,13,02,31,14.80
2015,07,13,02,32,14.80
2015,07,13,02,33,14.70
2015,07,13,02,34,14.70
2015,07,13,02,35,14.70
2015,07,13,02,36,14.70
2015,07,13,02,37,14.70
2015,07,13,02,38,14.70
2015,07,13,02,39,14.70
2015,07,13,02,40,14.70
2015,07,13,02,41,14.70
2015,07,13,02,42,14.70
2015,07,13,02,43,14.70
2015,07,13,02,44,14.70
2015,07,13,02,45,14.70
2015,07,13,02,46,14.70
2015,07,13,02,47,14.60
2015,07,13,02,48,14.60
2015,07,13,02,49,14.60
2015,07,13,02,50,14.60
2015,07,13,02,51,14.60
2015,07,13,02,52,14.60
2015,07,13,02,53,14.60
2015,07,13,02,54,14.50
2015,07,13,02,55,14.50
2015,07,13,02,56,14.50
2015,07,13,02,57,14.50
2015,07,13,02,58,14.50
2015,07,13,02,59,14.50
2015,07,13,03,00,14.40
2015,07,13,03,01,14.40
2015,07,13,03,02,14.40
2015,07,13,03,03,14.40
2015,07,13,03,04,14.40
2015,07,13,03,05,14.40
2015,07,13,03,06,14.30
2015,07,13,03,07,14.30
2015,07,13,03,08,14.30
2015,07,13,03,09,14.30
2015,07,13,03,10,14.30
2015,07,13,03,11,14.20
2015,07,13,03,12,14.20
2015,07,13,03,13,14.20
2015,07,13,03,14,14.20
2015,07,13,03,15,14.20
2015,07,13,03,16,14.20
2015,07,13,03,17,14.20
2015,07,13,03,18,14.10
2015,07,13,03,19,14.10
2015,07,13,03,20,14.10
2015,07,13,03,21,14.10
2015,07,13,03,22,14.10
2015,07,13,03,23,14.10
2015,07,13,03,24,14.10
2015,07,13,03,25,14.10
2015,07,13,03,26,14.10
2015,07,13,03,27,14.10
2015,07,13,03,28,14.10
2015,07,13,03,29,14.10
2015,07,13,03,30,14.10
2015,07,13,03,31,14.10
2015,07,13,03,32,14.10
2015,07,13,03,33,14.00
2015,07,13,03,34,14.00
2015,07,13,03,35,14.00
2015,07,13,03,36,14.00
2015,07,13,03,37,13.90
2015,07,13,03,38,13.90
2015,07,13,03,39,13.90
2015,07,13,03,40,13.90
2015,07,13,03,41,13.90
2015,07,13,03,42,13.90
2015,07,13,03,43,13.90
2015,07,13,03,44,13.80
2015,07,13,03,45,13.80
2015,07,13,03,46,13.80
2015,07,13,03,47,13.80
2015,07,13,03,48,13.80
2015,07,13,03,49,13.80
2015,07,13,03,50,13.80
2015,07,13,03,51,13.70
2015,07,13,03,52,13.70
2015,07,13,03,53,13.70
2015,07,13,03,54,13.70
2015,07,13,03,55,13.70
2015,07,13,03,56,13.70
2015,07,13,03,57,13.70
2015,07,13,03,58,13.70
2015,07,13,03,59,13.70
2015,07,13,04,00,13.60
2015,07,13,04,01,13.60
2015,07,13,04,02,13.60
2015,07,13,04,03,13.60
2015,07,13,05,02,12.90
2015,07,13,05,03,12.90
2015,07,13,05,04,12.90
2015,07,13,05,05,12.90
2015,07,13,05,06,12.90
2015,07,13,05,07,12.90
2015,07,13,05,08,12.90
2015,07,13,05,09,12.90
2015,07,13,05,10,12.90
2015,07,13,05,11,12.90
2015,07,13,05,12,12.90
2015,07,13,05,13,12.90
2015,07,13,05,14,12.90
2015,07,13,05,15,12.90
2015,07,13,05,16,12.90
2015,07,13,05,17,12.90
2015,07,13,05,18,12.90
2015,07,13,05,19,12.90
2015,07,13,05,20,12.90
2015,07,13,05,21,12.90
2015,07,13,05,22,12.90
2015,07,13,05,23,12.90
2015,07,13,05,24,12.90
2015,07,13,05,25,12.90
2015,07,13,05,26,12.90
2015,07,13,05,27,12.80
2015,07,13,05,28,12.80
2015,07,13,05,29,12.80
2015,07,13,05,30,12.80
2015,07,13,05,31,12.80
2015,07,13,05,32,12.70
2015,07,13,05,33,12.70
2015,07,13,05,34,12.70
2015,07,13,05,35,12.70
2015,07,13,05,36,12.70
2015,07,13,05,37,12.60
2015,07,13,05,38,12.60
2015,07,13,05,39,12.60
2015,07,13,05,40,12.60
2015,07,13,05,41,12.60
2015,07,13,05,42,12.60
2015,07,13,05,43,12.60
2015,07,13,05,44,12.50
2015,07,13,05,45,12.50
2015,07,13,05,46,12.50
2015,07,13,05,47,12.50
2015,07,13,05,48,12.50
2015,07,13,05,49,12.50
2015,07,13,05,50,12.50
2015,07,13,05,51,12.50
2015,07,13,05,52,12.50
2015,07,13,05,53,12.50
2015,07,13,05,54,12.50
2015,07,13,05,55,12.50
2015,07,13,05,56,12.50
2015,07,13,05,57,12.40
2015,07,13,05,58,12.40
2015,07,13,05,59,12.40
2015,07,13,06,00,12.40
2015,07,13,06,01,12.40
2015,07,13,06,02,12.40
2015,07,13,06,03,12.40
2015,07,13,06,04,12.40
2015,07,13,06,05,12.40
2015,07,13,06,06,12.40
2015,07,13,06,07,12.40
2015,07,13,06,08,12.40
2015,07,13,06,09,12.40
2015,07,13,06,10,12.40
2015,07,13,06,11,12.40
2015,07,13,06,12,12.40
2015,07,13,06,13,12.40
2015,07,13,06,14,12.50
2015,07,13,06,15,12.50
2015,07,13,06,16,12.50
2015,07,13,06,17,12.50
2015,07,13,06,18,12.60
2015,07,13,06,19,12.60
2015,07,13,06,20,12.60
2015,07,13,06,21,12.60
2015,07,13,06,22,12.70
2015,07,13,06,23,12.70
2015,07,13,06,24,12.70
2015,07,13,06,25,12.70
2015,07,13,06,26,12.80
2015,07,13,06,27,12.80
2015,07,13,06,28,12.80
2015,07,13,06,29,12.80
2015,07,13,06,30,12.80
2015,07,13,06,31,12.80
2015,07,13,06,32,12.90
2015,07,13,06,33,12.90
2015,07,13,06,34,12.90
2015,07,13,06,35,12.90
2015,07,13,06,36,12.90
2015,07,13,06,37,12.90
2015,07,13,06,38,12.90
2015,07,13,06,39,13.00
2015,07,13,06,40,13.00
2015,07,13,06,41,13.00
2015,07,13,06,42,13.00
2015,07,13,06,43,13.10
2015,07,13,06,44,13.10
2015,07,13,06,45,13.10
2015,07,13,06,46,13.20
2015,07,13,06,47,13.20
2015,07,13,06,48,13.20
2015,07,13,06,49,13.30
2015,07,13,06,50,13.30
2015,07,13,06,51,13.30
2015,07,13,06,52,13.30
2015,07,13,06,53,13.30
2015,07,13,06,54,13.30
2015,07,13,06,55,13.30
2015,07,13,06,56,13.30
2015,07,13,06,57,13.40
2015,07,13,06,58,13.40
2015,07,13,06,59,13.40
2015,07,13,07,00,13.40
2015,07,13,07,01,13.40
2015,07,13,07,02,13.50
2015,07,13,07,03,13.50
2015,07,13,07,04,13.50
2015,07,13,07,05,13.60
2015,07,13,07,06,13.60
2015,07,13,07,07,13.70
2015,07,13,07,08,13.70
2015,07,13,07,09,13.70
2015,07,13,07,10,13.70
2015,07,13,07,11,13.80
2015,07,13,07,12,13.80
2015,07,13,07,13,13.80
2015,07,13,07,14,13.80
2015,07,13,07,15,13.90
2015,07,13,07,16,13.90
2015,07,13,07,17,14.00
2015,07,13,07,18,14.00
2015,07,13,07,19,14.00
2015,07,13,07,20,14.10
2015,07,13,07,21,14.10
2015,07,13,07,22,14.10
2015,07,13,07,23,14.20
2015,07,13,07,24,14.20
2015,07,13,07,25,14.30
2015,07,13,07,26,14.30
2015,07,13,07,27,14.40
2015,07,13,07,28,14.40
2015,07,13,07,29,14.40
2015,07,13,07,30,14.40
2015,07,13,07,31,14.40
2015,07,13,07,32,14.50
2015,07,13,07,33,14.50
2015,07,13,07,34,14.50
2015,07,13,07,35,14.60
2015,07,13,07,36,14.60
2015,07,13,07,37,14.60
2015,07,13,07,38,14.70
2015,07,13,07,39,14.80
2015,07,13,07,40,14.80
2015,07,13,07,41,14.90
2015,07,13,07,42,15.00
2015,07,13,07,43,15.10
2015,07,13,07,44,15.20
2015,07,13,07,45,15.20
2015,07,13,07,46,15.30
2015,07,13,07,47,15.40
2015,07,13,07,48,15.40
2015,07,13,07,49,15.50
2015,07,13,07,50,15.50
2015,07,13,07,51,15.60
2015,07,13,07,52,15.70
2015,07,13,07,53,15.80
2015,07,13,07,54,15.80
2015,07,13,07,55,15.80
2015,07,13,07,56,15.80
2015,07,13,07,57,15.80
2015,07,13,07,58,15.80
2015,07,13,07,59,15.80
2015,07,13,08,00,15.80
2015,07,13,08,01,15.90
2015,07,13,08,02,15.90
2015,07,13,08,03,15.80
2015,07,13,08,04,15.80
2015,07,13,08,05,15.70
2015,07,13,08,06,15.70
2015,07,13,08,07,15.70
2015,07,13,08,08,15.80
2015,07,13,08,09,15.80
2015,07,13,08,10,15.90
2015,07,13,08,11,15.90
2015,07,13,08,12,15.90
2015,07,13,08,13,15.90
2015,07,13,08,14,15.90
2015,07,13,08,15,16.00
2015,07,13,08,16,16.00
2015,07,13,08,17,16.10
2015,07,13,08,18,16.10
2015,07,13,08,19,16.10
2015,07,13,08,20,16.10
2015,07,13,08,21,16.20
2015,07,13,08,22,16.20
2015,07,13,08,23,16.20
2015,07,13,08,24,16.20
2015,07,13,08,25,16.20
2015,07,13,08,26,16.30
2015,07,13,08,27,16.30
2015,07,13,08,28,16.40
2015,07,13,08,29,16.50
2015,07,13,08,30,16.50
2015,07,13,08,31,16.60
2015,07,13,08,32,16.60
2015,07,13,08,33,16.70
2015,07,13,08,34,16.70
2015,07,13,08,35,16.80
2015,07,13,08,36,16.80
2015,07,13,08,37,16.80
2015,07,13,08,38,16.90
2015,07,13,08,39,17.00
2015,07,13,08,40,17.00
2015,07,13,08,41,17.10
2015,07,13,08,42,17.20
2015,07,13,08,43,17.30
2015,07,13,08,44,17.30
2015,07,13,08,45,17.40
2015,07,13,08,46,17.40
2015,07,13,08,47,17.50
2015,07,13,08,48,17.60
2015,07,13,08,49,17.60
2015,07,13,08,50,17.60
2015,07,13,08,51,17.60
2015,07,13,08,52,17.60
2015,07,13,08,53,17.60
2015,07,13,08,54,17.70
2015,07,13,08,55,17.70
2015,07,13,08,56,17.70
2015,07,13,08,57,17.70
2015,07,13,08,58,17.70
2015,07,13,08,59,17.80
2015,07,13,09,00,17.80
2015,07,13,09,01,17.90
2015,07,13,09,02,17.80
2015,07,13,09,03,17.70
2015,07,13,09,04,17.50
2015,07,13,09,05,17.40
2015,07,13,09,06,17.30
2015,07,13,09,07,17.30
2015,07,13,09,08,17.30
2015,07,13,09,09,17.30
2015,07,13,09,10,17.30
2015,07,13,09,11,17.30
2015,07,13,09,12,17.30
2015,07,13,09,13,17.30
2015,07,13,09,14,17.30
2015,07,13,09,15,17.30
2015,07,13,09,16,17.30
2015,07,13,09,17,17.20
2015,07,13,09,18,17.20
2015,07,13,09,19,17.10
2015,07,13,09,20,17.10
2015,07,13,09,21,17.10
2015,07,13,09,22,17.10
2015,07,13,09,23,17.10
2015,07,13,09,24,17.00
2015,07,13,09,25,16.80
2015,07,13,09,26,16.80
2015,07,13,09,27,16.70
2015,07,13,09,28,16.80
2015,07,13,09,29,16.80
2015,07,13,09,30,16.80
2015,07,13,09,31,16.80
2015,07,13,09,32,16.70
2015,07,13,09,33,16.70
2015,07,13,09,34,16.80
2015,07,13,09,35,16.80
2015,07,13,09,36,16.90
2015,07,13,09,37,17.00
2015,07,13,09,38,17.00
2015,07,13,09,39,17.10
2015,07,13,09,40,17.00
2015,07,13,09,41,17.00
2015,07,13,09,42,16.90
2015,07,13,09,43,16.90
2015,07,13,09,44,16.90
2015,07,13,09,45,16.90
2015,07,13,09,46,17.00
2015,07,13,09,47,17.10
2015,07,13,09,48,17.20
2015,07,13,09,49,17.30
2015,07,13,09,50,17.30
2015,07,13,09,51,17.30
2015,07,13,09,52,17.30
2015,07,13,09,53,17.20
2015,07,13,09,54,17.20
2015,07,13,09,55,17.30
2015,07,13,09,56,17.40
2015,07,13,09,57,17.40
2015,07,13,09,58,17.40
2015,07,13,09,59,17.50
2015,07,13,10,00,17.50
2015,07,13,10,01,17.60
2015,07,13,10,02,17.80
2015,07,13,10,03,17.80
2015,07,13,10,04,17.80
2015,07,13,10,05,17.90
2015,07,13,10,06,18.00
2015,07,13,10,07,18.10
2015,07,13,10,08,18.20
2015,07,13,10,09,18.20
2015,07,13,10,10,18.30
2015,07,13,10,11,18.40
2015,07,13,10,12,18.40
2015,07,13,10,13,18.50
2015,07,13,10,14,18.50
2015,07,13,10,15,18.50
2015,07,13,10,16,18.50
2015,07,13,10,17,18.70
2015,07,13,10,18,18.70
2015,07,13,10,19,18.70
2015,07,13,10,20,18.70
2015,07,13,10,21,18.70
2015,07,13,10,22,18.70
2015,07,13,10,23,18.60
2015,07,13,10,24,18.50
2015,07,13,10,25,18.50
2015,07,13,10,26,18.60
2015,07,13,10,27,18.70
2015,07,13,10,28,18.80
2015,07,13,10,29,18.80
2015,07,13,10,30,18.80
2015,07,13,10,31,18.80
2015,07,13,10,32,18.80
2015,07,13,10,33,18.80
2015,07,13,10,34,18.80
2015,07,13,10,35,18.80
2015,07,13,10,36,18.90
2015,07,13,10,37,18.80
2015,07,13,10,38,18.80
2015,07,13,10,39,18.70
2015,07,13,10,40,18.70
2015,07,13,10,41,18.70
2015,07,13,10,42,18.80
2015,07,13,10,43,18.80
2015,07,13,10,44,18.80
2015,07,13,10,45,18.80
2015,07,13,10,46,18.80
2015,07,13,10,47,18.80
2015,07,13,10,48,18.80
2015,07,13,10,49,18.90
2015,07,13,10,50,18.90
2015,07,13,10,51,19.00
2015,07,13,10,52,19.00
2015,07,13,10,53,19.00
2015,07,13,10,54,19.10
2015,07,13,10,55,19.20
2015,07,13,10,56,19.30
2015,07,13,10,57,19.30
2015,07,13,10,58,19.30
2015,07,13,10,59,19.30
2015,07,13,11,00,19.40
2015,07,13,11,01,19.40
2015,07,13,11,02,19.50
2015,07,13,11,03,19.50
2015,07,13,11,04,19.60
2015,07,13,11,05,19.60
2015,07,13,11,06,19.60
2015,07,13,11,07,19.70
2015,07,13,11,08,19.70
2015,07,13,11,09,19.70
2015,07,13,11,10,19.80
2015,07,13,11,11,20.00
2015,07,13,11,12,20.20
2015,07,13,11,13,20.30
2015,07,13,11,14,20.30
2015,07,13,11,15,20.20
2015,07,13,11,16,20.20
2015,07,13,11,17,20.10
2015,07,13,11,18,20.10
2015,07,13,11,19,20.10
2015,07,13,11,20,20.00
2015,07,13,11,21,19.90
2015,07,13,11,22,19.90
2015,07,13,11,23,19.90
2015,07,13,11,24,20.00
2015,07,13,11,25,20.00
2015,07,13,11,26,20.00
2015,07,13,11,27,20.10
2015,07,13,11,28,20.00
2015,07,13,11,29,19.90
2015,07,13,11,30,19.80
2015,07,13,11,31,19.70
2015,07,13,11,32,19.60
2015,07,13,11,33,19.60
2015,07,13,11,34,19.60
2015,07,13,11,35,19.70
2015,07,13,11,36,19.70
2015,07,13,11,37,19.80
2015,07,13,11,38,19.80
2015,07,13,11,39,19.80
2015,07,13,11,40,19.90
2015,07,13,11,41,20.10
2015,07,13,11,42,20.20
2015,07,13,11,43,20.20
2015,07,13,11,44,20.30
2015,07,13,11,45,20.40
2015,07,13,11,46,20.50
2015,07,13,11,47,20.50
2015,07,13,11,48,20.60
2015,07,13,11,49,20.80
2015,07,13,11,50,21.00
2015,07,13,11,51,21.10
2015,07,13,11,52,21.20
2015,07,13,11,53,21.20
2015,07,13,11,54,21.20
2015,07,13,11,55,21.20
2015,07,13,11,56,21.20
2015,07,13,11,57,21.20
2015,07,13,11,58,21.30
2015,07,13,11,59,21.30
2015,07,13,12,00,21.40
2015,07,13,12,01,21.40
2015,07,13,12,02,21.50
2015,07,13,12,03,21.50
2015,07,13,12,04,21.60
2015,07,13,12,05,21.70
2015,07,13,12,06,21.60
2015,07,13,12,07,21.40
2015,07,13,12,08,20.90
2015,07,13,12,09,20.50
2015,07,13,12,10,20.10
2015,07,13,12,11,19.80
2015,07,13,12,12,19.60
2015,07,13,12,13,19.40
2015,07,13,12,14,19.30
2015,07,13,12,15,19.30
2015,07,13,12,16,19.20
2015,07,13,12,17,19.30
2015,07,13,12,18,19.30
2015,07,13,12,19,19.40
2015,07,13,12,20,19.50
2015,07,13,12,21,19.50
2015,07,13,12,22,19.60
2015,07,13,12,23,19.60
2015,07,13,12,24,19.70
2015,07,13,12,25,19.80
2015,07,13,12,26,19.90
2015,07,13,12,27,19.90
2015,07,13,12,28,20.00
2015,07,13,12,29,20.10
2015,07,13,12,30,20.10
2015,07,13,12,31,20.10
2015,07,13,12,32,20.20
2015,07,13,12,33,20.20
2015,07,13,12,34,20.20
2015,07,13,12,35,20.20
2015,07,13,12,36,20.20
2015,07,13,12,37,20.20
2015,07,13,12,38,20.20
2015,07,13,12,39,20.30
2015,07,13,12,40,20.40
2015,07,13,12,41,20.40
2015,07,13,12,42,20.50
2015,07,13,12,43,20.50
2015,07,13,12,44,20.60
2015,07,13,12,45,20.70
2015,07,13,12,46,20.70
2015,07,13,12,47,20.70
2015,07,13,12,48,20.70
2015,07,13,12,49,20.80
2015,07,13,12,50,20.80
2015,07,13,12,51,20.80
2015,07,13,12,52,20.80
2015,07,13,12,53,20.80
2015,07,13,12,54,20.70
2015,07,13,12,55,20.70
2015,07,13,12,56,20.70
2015,07,13,12,57,20.70
2015,07,13,12,58,20.80
2015,07,13,12,59,20.70
2015,07,13,13,00,20.70
2015,07,13,13,01,20.70
2015,07,13,13,02,20.70
2015,07,13,13,03,20.70
2015,07,13,13,04,20.80
2015,07,13,13,05,20.90
2015,07,13,13,06,21.00
2015,07,13,13,07,21.10
2015,07,13,13,08,21.20
2015,07,13,13,09,21.30
2015,07,13,13,10,21.40
2015,07,13,13,11,21.50
2015,07,13,13,12,21.50
2015,07,13,13,13,21.60
2015,07,13,13,14,21.60
2015,07,13,13,15,21.70
2015,07,13,13,16,21.70
2015,07,13,13,17,21.70
2015,07,13,13,18,21.70
2015,07,13,13,19,21.70
2015,07,13,13,20,21.60
2015,07,13,13,21,21.60
2015,07,13,13,22,21.60
2015,07,13,13,23,21.60
2015,07,13,13,24,21.50
2015,07,13,13,25,21.50
2015,07,13,13,26,21.40
2015,07,13,13,27,21.40
2015,07,13,13,28,21.40
2015,07,13,13,29,21.40
2015,07,13,13,30,21.40
2015,07,13,13,31,21.40
2015,07,13,13,32,21.40
2015,07,13,13,33,21.50
2015,07,13,13,34,21.50
2015,07,13,13,35,21.60
2015,07,13,13,36,21.70
2015,07,13,13,37,21.70
2015,07,13,13,38,21.70
2015,07,13,13,39,21.70
2015,07,13,13,40,21.60
2015,07,13,13,41,21.60
2015,07,13,13,42,21.50
2015,07,13,13,43,21.40
2015,07,13,13,44,21.50
2015,07,13,13,45,21.60
2015,07,13,13,46,21.70
2015,07,13,13,47,21.60
2015,07,13,13,48,21.50
2015,07,13,13,49,21.40
2015,07,13,13,50,21.50
2015,07,13,13,51,21.60
2015,07,13,13,52,21.70
2015,07,13,13,53,21.90
2015,07,13,13,54,21.90
2015,07,13,13,55,21.80
2015,07,13,13,56,21.70
2015,07,13,13,57,21.60
2015,07,13,13,58,21.40
2015,07,13,13,59,21.30
2015,07,13,14,00,21.20
2015,07,13,14,01,21.10
2015,07,13,14,02,21.00
2015,07,13,14,03,21.00
2015,07,13,14,04,21.10
2015,07,13,14,05,21.10
2015,07,13,14,06,21.10
2015,07,13,14,07,21.00
2015,07,13,14,08,21.10
2015,07,13,14,09,21.10
2015,07,13,14,10,21.20
2015,07,13,14,11,21.30
2015,07,13,14,12,21.40
2015,07,13,14,13,21.60
2015,07,13,14,14,21.70
2015,07,13,14,15,21.80
2015,07,13,14,16,21.80
2015,07,13,14,17,21.80
2015,07,13,14,18,21.90
2015,07,13,14,19,21.90
2015,07,13,14,20,22.00
2015,07,13,14,21,22.00
2015,07,13,14,22,22.00
2015,07,13,14,23,22.10
2015,07,13,14,24,22.10
2015,07,13,14,25,21.90
2015,07,13,14,26,21.80
2015,07,13,14,27,21.80
2015,07,13,14,28,21.70
2015,07,13,14,29,21.60
2015,07,13,14,30,21.50
2015,07,13,14,31,21.40
2015,07,13,14,32,21.40
2015,07,13,14,33,21.40
2015,07,13,14,34,21.40
2015,07,13,14,35,21.40
2015,07,13,14,36,21.50
2015,07,13,14,37,21.60
2015,07,13,14,38,21.70
2015,07,13,14,39,21.70
2015,07,13,14,40,21.70
2015,07,13,14,41,21.70
2015,07,13,14,42,21.70
2015,07,13,14,43,21.80
2015,07,13,14,44,21.80
2015,07,13,14,45,21.80
2015,07,13,14,46,21.70
2015,07,13,14,47,21.70
2015,07,13,14,48,21.60
2015,07,13,14,49,21.60
2015,07,13,14,50,21.60
2015,07,13,14,51,21.70
2015,07,13,14,52,21.70
2015,07,13,14,53,21.70
2015,07,13,14,54,21.80
2015,07,13,14,55,21.90
2015,07,13,14,56,21.90
2015,07,13,14,57,22.00
2015,07,13,14,58,22.00
2015,07,13,14,59,22.00
2015,07,13,15,00,21.90
2015,07,13,15,01,21.90
2015,07,13,15,02,21.90
2015,07,13,15,03,21.90
2015,07,13,15,04,21.90
2015,07,13,15,05,22.00
2015,07,13,15,06,22.10
2015,07,13,15,07,22.10
2015,07,13,15,08,22.10
2015,07,13,15,09,22.20
2015,07,13,15,10,22.20
2015,07,13,15,11,22.10
2015,07,13,15,12,22.10
2015,07,13,15,13,22.00
2015,07,13,15,14,22.00
2015,07,13,15,15,22.10
2015,07,13,15,16,22.20
2015,07,13,15,17,22.30
2015,07,13,15,18,22.40
2015,07,13,15,19,22.60
2015,07,13,15,20,22.70
2015,07,13,15,21,22.80
2015,07,13,15,22,22.80
2015,07,13,15,23,22.90
2015,07,13,15,24,22.80
2015,07,13,15,25,22.80
2015,07,13,15,26,22.80
2015,07,13,15,27,22.70
2015,07,13,15,28,22.60
2015,07,13,15,29,22.50
2015,07,13,15,30,22.40
2015,07,13,15,31,22.30
2015,07,13,15,32,22.30
2015,07,13,15,33,22.30
2015,07,13,15,34,22.30
2015,07,13,15,35,22.30
2015,07,13,15,36,22.20
2015,07,13,15,37,22.10
2015,07,13,15,38,22.10
2015,07,13,15,39,22.10
2015,07,13,15,40,22.10
2015,07,13,15,41,22.10
2015,07,13,15,42,22.20
2015,07,13,15,43,22.20
2015,07,13,15,44,22.30
2015,07,13,15,45,22.30
2015,07,13,15,46,22.40
2015,07,13,15,47,22.40
2015,07,13,15,48,22.40
2015,07,13,15,49,22.40
2015,07,13,15,50,22.40
2015,07,13,15,51,22.40
2015,07,13,15,52,22.40
2015,07,13,15,53,22.40
2015,07,13,15,54,22.50
2015,07,13,15,55,22.50
2015,07,13,15,56,22.60
2015,07,13,15,57,22.70
2015,07,13,15,58,22.80
2015,07,13,15,59,22.80
2015,07,13,16,00,22.80
2015,07,13,16,01,22.90
2015,07,13,16,02,23.00
2015,07,13,16,03,23.00
2015,07,13,16,04,23.10
2015,07,13,16,05,23.10
2015,07,13,16,06,23.20
2015,07,13,16,07,23.10
2015,07,13,16,08,23.00
2015,07,13,16,09,22.90
2015,07,13,16,10,22.80
2015,07,13,16,11,22.70
2015,07,13,16,12,22.70
2015,07,13,16,13,22.60
2015,07,13,16,14,22.60
2015,07,13,16,15,22.40
2015,07,13,16,16,22.40
2015,07,13,16,17,22.30
2015,07,13,16,18,22.30
2015,07,13,16,19,22.30
2015,07,13,16,20,22.20
2015,07,13,16,21,22.20
2015,07,13,16,22,22.20
2015,07,13,16,23,22.20
2015,07,13,16,24,22.20
2015,07,13,16,25,22.20
2015,07,13,16,26,22.20
2015,07,13,16,27,22.20
2015,07,13,16,28,22.30
2015,07,13,16,29,22.30
2015,07,13,16,30,22.30
2015,07,13,16,31,22.20
2015,07,13,16,32,22.20
2015,07,13,16,33,22.20
2015,07,13,16,34,22.10
2015,07,13,16,35,22.10
2015,07,13,16,36,22.00
2015,07,13,16,37,22.00
2015,07,13,16,38,22.00
2015,07,13,16,39,22.00
2015,07,13,16,40,22.10
2015,07,13,16,41,22.10
2015,07,13,16,42,22.10
2015,07,13,16,43,22.10
2015,07,13,16,44,22.10
2015,07,13,16,45,22.10
2015,07,13,16,46,22.10
2015,07,13,16,47,22.10
2015,07,13,16,48,22.10
2015,07,13,16,49,22.10
2015,07,13,16,50,22.10
2015,07,13,16,51,22.10
2015,07,13,16,52,22.10
2015,07,13,16,53,22.00
2015,07,13,16,54,22.00
2015,07,13,16,55,21.90
2015,07,13,16,56,21.90
2015,07,13,16,57,21.80
2015,07,13,16,58,21.80
2015,07,13,16,59,21.80
2015,07,13,17,00,21.70
2015,07,13,17,01,21.70
2015,07,13,17,02,21.70
2015,07,13,17,03,21.60
2015,07,13,17,04,21.60
2015,07,13,17,05,21.60
2015,07,13,17,06,21.60
2015,07,13,17,07,21.60
2015,07,13,17,08,21.60
2015,07,13,17,09,21.60
2015,07,13,17,10,21.70
2015,07,13,17,11,21.80
2015,07,13,17,12,21.90
2015,07,13,17,13,21.90
2015,07,13,17,14,22.00
2015,07,13,17,15,22.00
2015,07,13,17,16,22.10
2015,07,13,17,17,22.10
2015,07,13,17,18,22.20
2015,07,13,17,19,22.20
2015,07,13,17,20,22.30
2015,07,13,17,21,22.30
2015,07,13,17,22,22.40
2015,07,13,17,23,22.40
2015,07,13,17,24,22.50
2015,07,13,17,25,22.50
2015,07,13,17,26,22.60
2015,07,13,17,27,22.60
2015,07,13,17,28,22.60
2015,07,13,17,29,22.70
2015,07,13,17,30,22.80
2015,07,13,17,31,22.90
2015,07,13,17,32,22.90
2015,07,13,17,33,22.90
2015,07,13,17,34,22.90
2015,07,13,17,35,22.90
2015,07,13,17,36,22.90
2015,07,13,17,37,22.90
2015,07,13,17,38,23.00
2015,07,13,17,39,23.10
2015,07,13,17,40,23.10
2015,07,13,17,41,23.10
2015,07,13,17,42,23.10
2015,07,13,17,43,23.10
2015,07,13,17,44,23.10
2015,07,13,17,45,23.10
2015,07,13,17,46,23.20
2015,07,13,17,47,23.20
2015,07,13,17,48,23.30
2015,07,13,17,49,23.30
2015,07,13,17,50,23.40
2015,07,13,17,51,23.50
2015,07,13,17,52,23.60
2015,07,13,17,53,23.60
2015,07,13,17,54,23.70
2015,07,13,17,55,23.70
2015,07,13,17,56,23.80
2015,07,13,17,57,23.90
2015,07,13,17,58,24.00
2015,07,13,17,59,24.10
2015,07,13,18,00,24.10
2015,07,13,18,01,24.10
2015,07,13,18,02,24.00
2015,07,13,18,03,24.00
2015,07,13,18,04,24.00
2015,07,13,18,05,24.00
2015,07,13,18,06,24.00
2015,07,13,18,07,23.90
2015,07,13,18,08,23.80
2015,07,13,18,09,23.80
2015,07,13,18,10,23.70
2015,07,13,18,11,23.70
2015,07,13,18,12,23.60
2015,07,13,18,13,23.50
2015,07,13,18,14,23.40
2015,07,13,18,15,23.30
2015,07,13,18,16,23.20
2015,07,13,18,17,23.10